Wind_Speed
4 5 5 6 6 6 6 5 4 3 3 2 2 1 0 1 2 3 4 5 6 7 9 11 11 12 13 14 14 14 14 14 14 14 13 13 12 12 12 11 10 9 9
2 2 3 3 4 4 4 4 3 2 1 1 1 1 0 0 1 2 2 3 4 5 7 8 9 10 11 12 12 13 13 14 14 14 14 14 14 14 13 12 10 9 8
1 1 0 1 1 1 1 1 1 1 1 0 0 0 0 1 1 1 2 3 4 4 5 6 7 8 9 10 10 11 11 11 12 13 13 13 12 12 11 10 9 8 7
3 3 3 2 2 2 1 1 1 2 2 2 2 2 2 2 2 2 2 2 3 4 4 5 5 6 7 8 8 8 8 9 10 11 11 10 10 9 9 8 8 7 6
5 5 5 5 5 5 4 4 4 4 4 4 4 3 3 3 3 3 3 3 3 4 4 4 5 5 5 6 6 7 7 7 8 8 8 8 7 7 7 7 7 6 5
6 7 7 7 8 8 8 7 7 7 7 6 6 5 5 5 4 4 4 4 4 4 4 4 5 5 5 5 5 6 6 6 6 6 6 6 6 5 5 6 5 5 4
8 9 9 10 10 10 11 11 10 10 10 10 9 9 8 7 7 6 6 6 5 5 5 5 5 5 5 5 5 5 5 5 5 4 4 4 4 4 3 3 4 4 3
9 10 11 12 13 13 13 14 14 13 13 13 12 12 11 10 10 9 8 8 7 7 6 6 6 6 6 5 5 5 5 5 5 4 4 3 3 3 2 3 3 3 3
11 12 12 14 15 15 16 16 16 16 16 16 15 15 14 13 13 12 11 10 9 9 8 7 7 7 6 6 6 5 5 5 5 4 4 3 2 2 2 2 1 1 1
14 15 15 15 17 18 18 18 19 19 20 19 19 18 17 16 15 15 14 13 12 11 10 9 9 8 8 7 7 6 6 6 5 5 4 3 2 2 1 1 0 0 1
17 18 18 18 19 19 20 21 21 21 22 22 21 21 20 19 18 18 16 15 15 14 13 12 11 10 9 9 8 8 7 7 6 5 4 3 3 2 1 1 0 0 1
21 22 22 22 22 22 23 23 23 22 23 24 24 24 23 23 22 22 20 19 18 17 16 14 13 12 11 11 10 9 8 8 7 6 5 4 4 3 2 1 1 1 1
26 26 26 25 26 26 26 26 26 25 25 26 26 25 25 25 25 25 24 23 21 20 19 17 16 15 14 12 11 10 10 9 9 8 7 6 5 4 3 2 2 2 2
30 30 30 31 30 29 29 29 29 27 26 27 27 28 27 27 27 27 26 25 24 23 21 20 18 17 16 15 13 12 11 11 10 10 9 8 7 6 5 4 3 3 3
33 34 34 34 34 34 33 32 32 31 30 28 28 28 28 27 27 26 27 27 25 24 24 23 21 20 18 17 16 15 14 13 12 11 10 9 9 8 7 6 5 4 4
36 36 37 37 37 37 37 37 36 35 34 33 32 32 31 30 30 29 28 28 27 26 25 24 23 22 21 19 18 17 15 14 14 14 13 11 10 9 9 7 6 6 5
37 38 39 39 39 40 40 40 39 38 37 36 36 35 34 32 32 30 29 28 28 28 28 26 25 22 22 21 19 18 17 17 17 16 15 13 12 11 10 9 8 8 7
37 38 39 39 39 40 41 41 41 40 39 39 38 37 36 35 33 32 30 30 28 29 28 27 26 24 22 22 21 20 20 20 20 19 18 16 15 13 12 11 10 10 9
35 36 37 37 38 38 39 40 40 40 40 39 39 38 37 36 34 33 32 31 30 28 27 26 26 26 25 24 24 23 22 22 22 21 20 18 17 16 15 14 12 12 11
32 33 34 35 36 36 37 38 39 39 39 39 39 39 39 38 36 35 33 32 30 29 28 26 26 26 26 26 25 24 24 23 23 22 21 20 19 18 17 16 15 14 13
29 30 30 31 32 33 34 34 35 36 37 38 39 39 38 38 37 36 34 34 33 31 30 28 28 28 27 27 26 25 25 25 25 24 23 22 21 20 19 19 18 17 15
27 27 27 28 28 29 30 30 32 33 34 35 36 37 38 38 37 37 36 35 34 34 32 30 30 29 28 28 27 27 26 26 27 25 24 24 24 23 22 21 20 20 19
25 25 25 25 25 25 26 26 28 29 30 31 32 34 35 36 36 36 36 36 35 34 33 32 32 32 30 29 29 28 28 27 28 27 26 26 26 25 24 24 23 22 21
23 22 22 22 22 21 22 23 24 25 26 27 28 30 32 33 34 35 36 36 36 35 35 34 33 33 32 31 30 30 30 30 30 30 29 27 27 26 25 25 25 24 23
20 19 19 19 19 18 18 19 20 21 22 24 25 27 29 31 32 34 35 35 36 36 36 35 34 34 34 33 32 31 31 30 30 32 31 30 29 27 27 27 27 26 25
19 19 18 18 17 16 16 16 16 16 18 19 21 22 25 27 29 31 33 34 35 36 36 36 36 36 35 34 33 33 33 31 30 32 33 32 31 29 28 28 29 28 28
Wind_Direction
74 77 80 82 86 88 88 88 88 89 91 95 101 109 170 234 248 249 251 253 255 253 250 248 248 249 251 252 253 255 259 261 265 267 273 275 278 282 285 288 291 298 303
59 68 77 80 83 87 89 91 92 90 92 91 87 72 31 305 282 277 273 273 273 269 261 255 253 253 253 254 255 258 261 263 265 269 274 277 279 281 281 280 284 291 295
288 315 348 51 74 87 96 106 114 125 157 204 242 268 288 299 302 302 296 288 285 282 275 268 263 261 259 257 259 262 264 266 269 272 275 278 281 279 275 274 280 283 288
270 274 273 270 265 258 246 234 230 231 234 238 244 249 255 266 277 286 290 293 293 292 289 283 277 272 270 266 264 266 268 270 274 277 278 279 279 276 271 276 276 276 277
272 272 272 269 266 262 257 253 250 249 248 248 249 250 251 255 262 271 278 288 296 300 302 295 288 283 281 277 273 273 275 277 280 282 281 282 282 279 275 276 270 266 264
275 273 272 270 267 265 262 257 255 253 252 252 252 253 255 258 260 263 269 277 285 292 299 298 296 295 295 290 285 282 283 285 287 291 291 288 284 280 281 276 263 260 257
280 274 271 269 267 265 262 260 257 256 255 254 255 256 257 260 263 265 266 269 276 282 289 292 291 293 294 296 297 293 290 289 288 295 298 297 289 282 284 285 267 258 255
284 276 271 268 266 263 262 261 259 258 257 256 255 256 257 258 261 264 265 266 269 275 281 286 287 289 292 293 296 297 295 289 287 294 299 307 299 287 287 292 277 254 251
284 278 276 268 264 262 260 260 258 258 257 255 254 254 255 256 258 260 263 264 266 268 272 277 281 285 290 290 290 291 291 286 285 292 297 305 304 307 307 297 276 258 258
283 279 277 274 266 261 260 259 257 255 255 254 255 254 254 255 256 258 260 263 264 265 266 269 273 278 282 284 285 285 282 278 280 288 294 298 298 302 315 303 285 230 203
281 277 276 275 270 267 265 262 260 257 254 254 254 254 254 255 255 257 259 261 263 263 263 264 267 270 274 276 278 279 276 272 273 278 287 284 287 293 300 291 295 184 164
280 277 273 270 268 268 269 265 263 261 258 255 253 253 253 254 255 255 256 259 260 261 260 262 264 265 267 269 271 273 273 270 267 270 278 276 274 279 275 268 249 212 183
279 276 274 271 269 268 266 266 265 265 261 256 253 253 253 253 255 255 255 256 257 258 257 260 262 262 263 264 265 266 268 268 264 265 268 267 265 268 264 262 256 242 215
278 277 275 273 271 269 267 266 266 266 264 259 254 254 255 254 254 254 253 256 256 256 255 256 259 260 260 259 259 260 262 263 263 261 260 262 261 261 263 258 250 241 224
278 277 276 275 273 271 269 267 266 265 264 261 259 258 259 256 254 255 255 255 255 254 253 253 255 257 257 256 255 255 256 257 260 261 258 259 260 258 258 256 248 238 231
279 278 276 274 273 271 269 267 265 263 262 261 259 257 257 256 256 255 255 252 252 253 252 252 252 254 253 253 251 251 252 253 257 259 257 257 258 258 257 254 250 244 239
280 279 277 275 274 273 271 269 266 264 263 262 260 259 258 257 256 255 255 253 254 253 253 254 251 252 249 250 249 250 252 252 253 255 254 254 255 255 254 252 251 249 246
282 280 279 277 275 273 272 270 268 266 263 262 261 260 259 258 256 256 257 256 255 252 252 253 249 249 248 247 248 248 247 247 247 249 250 250 250 251 250 250 251 251 248
284 283 281 278 276 274 272 269 268 266 263 262 260 259 257 257 256 255 255 256 256 252 250 249 248 248 248 247 247 248 247 245 244 245 247 246 246 246 247 248 251 252 250
289 286 283 280 278 276 273 271 268 265 263 261 259 258 256 254 254 254 253 253 252 248 248 248 247 244 244 247 248 248 247 244 242 242 244 244 244 244 245 246 249 251 251
295 292 288 285 281 277 275 272 269 266 263 261 258 256 254 251 250 250 250 249 248 245 245 247 246 243 244 246 245 245 245 243 242 241 240 242 244 244 244 246 247 250 251
302 298 294 290 286 281 277 274 271 267 264 262 258 254 252 250 248 247 246 246 246 244 242 244 242 241 242 244 244 245 245 242 241 239 240 241 242 242 243 245 246 249 250
309 304 301 297 293 288 283 278 274 269 266 263 259 255 252 249 246 245 244 243 242 242 241 241 241 241 242 242 243 244 242 240 240 239 239 240 240 242 241 243 245 248 250
317 312 309 307 303 297 292 286 280 274 268 264 259 254 250 248 245 243 242 241 240 238 238 237 237 238 239 240 241 242 242 241 241 239 239 240 240 240 240 241 243 246 247
329 325 321 318 316 311 305 297 289 281 273 266 260 255 251 248 246 244 242 240 238 237 235 234 234 235 236 236 237 237 238 239 240 238 238 238 238 239 239 239 242 244 246
344 341 338 334 331 327 320 313 303 292 281 271 262 257 252 249 246 243 241 239 237 235 233 232 232 232 233 234 234 235 236 237 239 238 238 236 236 238 239 239 240 242 245
Height
5919 5918 5917 5917 5916 5916 5916 5916 5916 5916 5916 5916 5916 5916 5916 5916 5916 5916 5916 5916 5915 5915 5914 5914 5914 5913 5913 5913 5913 5913 5913 5912 5912 5912 5911 5911 5910 5910 5909 5909 5908 5907 5907
5920 5919 5919 5918 5917 5917 5917 5917 5917 5917 5917 5917 5917 5917 5917 5917 5916 5916 5916 5915 5915 5914 5914 5913 5912 5912 5912 5912 5911 5911 5911 5911 5910 5910 5910 5909 5909 5908 5908 5907 5907 5906 5906
5920 5920 5919 5919 5918 5918 5918 5918 5917 5917 5917 5917 5917 5917 5917 5917 5916 5916 5916 5915 5915 5914 5913 5912 5912 5911 5911 5911 5910 5910 5910 5909 5909 5908 5908 5907 5907 5906 5906 5906 5906 5906 5905
5920 5920 5920 5919 5919 5919 5918 5918 5918 5918 5918 5917 5917 5917 5917 5916 5916 5916 5915 5915 5914 5914 5913 5912 5911 5911 5910 5910 5909 5909 5908 5908 5907 5907 5906 5906 5905 5904 5905 5905 5905 5905 5904
5920 5920 5920 5919 5919 5919 5919 5918 5918 5918 5917 5917 5917 5917 5916 5916 5916 5915 5915 5914 5914 5913 5913 5912 5911 5910 5910 5909 5909 5908 5908 5907 5907 5906 5905 5904 5904 5903 5903 5903 5903 5903 5903
5920 5919 5919 5919 5918 5918 5918 5918 5917 5917 5917 5917 5916 5916 5916 5915 5915 5915 5914 5914 5913 5913 5912 5912 5911 5910 5910 5909 5908 5908 5907 5907 5906 5905 5904 5904 5903 5903 5902 5902 5902 5902 5902
5918 5917 5917 5917 5917 5917 5917 5916 5916 5916 5916 5916 5915 5915 5915 5914 5914 5914 5913 5913 5913 5912 5912 5911 5911 5910 5909 5909 5908 5907 5907 5906 5905 5905 5904 5903 5902 5902 5902 5902 5901 5901 5901
5916 5915 5915 5915 5914 5914 5914 5914 5914 5914 5914 5914 5913 5913 5913 5913 5913 5912 5912 5912 5911 5911 5911 5910 5910 5909 5909 5908 5907 5907 5906 5906 5905 5904 5903 5902 5902 5901 5901 5901 5900 5900 5900
5914 5913 5912 5912 5911 5911 5911 5911 5911 5911 5911 5910 5910 5911 5911 5910 5910 5910 5910 5910 5910 5909 5909 5909 5909 5908 5908 5907 5907 5906 5906 5905 5904 5904 5903 5902 5902 5901 5901 5900 5900 5900 5900
5911 5910 5909 5908 5907 5907 5907 5907 5907 5907 5906 5906 5907 5907 5907 5907 5907 5907 5908 5908 5907 5907 5907 5907 5907 5907 5906 5906 5906 5905 5905 5904 5904 5903 5903 5902 5902 5901 5901 5900 5900 5900 5900
5908 5907 5906 5904 5904 5903 5903 5902 5902 5902 5902 5902 5902 5902 5903 5903 5904 5904 5904 5904 5904 5905 5905 5905 5905 5905 5905 5905 5904 5904 5904 5903 5903 5903 5902 5902 5901 5901 5901 5900 5900 5900 5900
5904 5902 5901 5900 5900 5899 5898 5897 5897 5897 5897 5897 5897 5898 5898 5899 5899 5900 5900 5900 5901 5901 5901 5902 5902 5902 5902 5903 5903 5903 5902 5902 5902 5902 5901 5901 5901 5901 5900 5900 5900 5900 5900
5898 5896 5895 5895 5894 5893 5893 5892 5892 5891 5891 5891 5892 5892 5893 5894 5894 5895 5895 5896 5896 5897 5898 5898 5899 5899 5900 5900 5900 5901 5901 5901 5901 5901 5901 5900 5900 5900 5900 5900 5900 5900 5900
5891 5889 5888 5887 5887 5886 5886 5886 5885 5885 5885 5885 5885 5886 5887 5888 5889 5889 5889 5890 5891 5892 5893 5894 5895 5895 5896 5897 5898 5898 5898 5899 5899 5899 5900 5900 5899 5899 5900 5900 5900 5900 5900
5883 5881 5880 5879 5878 5878 5878 5878 5878 5878 5879 5879 5879 5880 5881 5882 5883 5883 5883 5884 5886 5887 5888 5889 5890 5891 5892 5893 5894 5895 5896 5896 5896 5897 5898 5898 5898 5898 5899 5899 5899 5899 5900
5874 5872 5871 5870 5869 5868 5868 5868 5869 5870 5871 5871 5872 5872 5873 5875 5876 5877 5878 5878 5880 5881 5882 5884 5885 5886 5888 5889 5890 5891 5892 5893 5893 5895 5895 5896 5897 5897 5897 5898 5898 5898 5899
5865 5863 5861 5860 5859 5859 5858 5858 5859 5860 5861 5862 5863 5864 5865 5867 5868 5870 5871 5872 5873 5875 5876 5878 5879 5881 5882 5884 5886 5887 5888 5889 5890 5891 5892 5894 5894 5895 5896 5896 5897 5897 5898
5855 5853 5852 5850 5849 5848 5848 5847 5848 5849 5850 5852 5853 5854 5856 5858 5860 5862 5864 5865 5866 5868 5869 5871 5873 5875 5877 5879 5881 5883 5884 5885 5887 5888 5889 5890 5891 5893 5893 5894 5895 5896 5896
5846 5844 5842 5840 5839 5838 5837 5836 5837 5838 5839 5841 5842 5844 5846 5848 5851 5853 5856 5857 5859 5861 5862 5864 5867 5869 5871 5873 5875 5877 5879 5881 5882 5883 5885 5886 5888 5889 5890 5892 5893 5893 5894
5838 5835 5832 5830 5828 5827 5826 5826 5826 5826 5827 5829 5831 5833 5836 5838 5841 5844 5847 5849 5851 5853 5856 5858 5860 5862 5865 5867 5869 5871 5873 5875 5877 5879 5880 5882 5884 5885 5887 5888 5890 5891 5892
5830 5826 5823 5821 5819 5817 5816 5815 5815 5815 5816 5818 5820 5822 5824 5827 5831 5834 5837 5840 5842 5845 5848 5851 5853 5855 5858 5860 5862 5865 5867 5869 5872 5874 5876 5877 5879 5881 5883 5884 5886 5887 5888
5822 5819 5816 5813 5810 5808 5807 5805 5805 5805 5806 5807 5808 5811 5813 5816 5819 5823 5827 5830 5833 5836 5840 5842 5845 5848 5850 5853 5856 5858 5860 5863 5865 5868 5870 5872 5874 5876 5878 5880 5882 5883 5884
5816 5812 5809 5806 5803 5800 5798 5797 5796 5796 5796 5797 5798 5800 5802 5805 5809 5813 5816 5820 5823 5827 5830 5833 5837 5840 5843 5846 5849 5852 5854 5857 5859 5862 5864 5867 5869 5871 5873 5875 5877 5878 5879
5811 5807 5804 5800 5797 5794 5792 5790 5788 5787 5787 5787 5788 5790 5792 5795 5799 5802 5806 5809 5813 5817 5821 5824 5828 5831 5835 5838 5841 5844 5847 5850 5853 5856 5858 5861 5863 5865 5867 5869 5871 5873 5874
5808 5804 5800 5796 5792 5789 5786 5784 5782 5780 5780 5779 5780 5781 5783 5786 5789 5792 5796 5799 5803 5807 5811 5815 5818 5822 5826 5830 5833 5836 5839 5842 5845 5848 5851 5854 5857 5859 5861 5863 5865 5867 5869
5805 5801 5797 5792 5789 5785 5782 5779 5776 5775 5773 5773 5772 5773 5775 5777 5779 5782 5786 5789 5793 5797 5801 5805 5809 5813 5817 5821 5824 5827 5831 5834 5837 5840 5843 5846 5849 5852 5855 5857 5859 5861 5863